When you browse on this site, cookies collect data to enhance your experience and personalize the content and advertising you see.
Visit our Privacy Policy to learn more. By continuing to use the site, you agree to this use of cookies and data.
  • In Czech Republic
  • List of Countries
  • For 7 days
  • Water Temperature
  • Satellite Maps
  • Weather Map
  • Weather Widgets
  • user-avatar
    Login

    Hourly Weather Lamu

    Today, 20 June, Thursday

    Time Temperature Precipitation Wind Pressure Humidity
    00:00 +27°C° 0 mm 8 mps 760 mmHg 80%
    01:00 +27°C° 0 mm 8 mps 760 mmHg 80%
    02:00 +27°C° 0 mm 7 mps 760 mmHg 80%
    03:00 +27°C° 0 mm 7 mps 759 mmHg 80%
    04:00 +27°C° 0 mm 7 mps 759 mmHg 80%
    05:00 +27°C° 0 mm 7 mps 759 mmHg 81%
    06:00 +27°C° 0 mm 7 mps 760 mmHg 82%
    07:00 +28°C° 0 mm 7 mps 760 mmHg 78%
    08:00 +29°C° 0 mm 8 mps 761 mmHg 73%
    09:00 +31°C° 0 mm 8 mps 761 mmHg 69%
    10:00 +31°C° 0.1 mm 8 mps 761 mmHg 66%
    11:00 +32°C° 0.1 mm 8 mps 761 mmHg 64%
    12:00 +32°C° 0.1 mm 8 mps 760 mmHg 61%
    13:00 +32°C° 0.1 mm 8 mps 760 mmHg 62%
    14:00 +32°C° 0.1 mm 8 mps 759 mmHg 63%
    15:00 +31°C° 0.1 mm 8 mps 758 mmHg 65%
    16:00 +29°C° 0 mm 8 mps 758 mmHg 69%
    17:00 +28°C° 0 mm 8 mps 758 mmHg 73%
    18:00 +27°C° 0 mm 8 mps 759 mmHg 77%
    19:00 +27°C° 0.1 mm 8 mps 759 mmHg 77%
    20:00 +27°C° 0.1 mm 8 mps 759 mmHg 78%
    21:00 +27°C° 0.1 mm 8 mps 760 mmHg 79%
    22:00 +27°C° 0.1 mm 8 mps 760 mmHg 79%
    23:00 +27°C° 0.1 mm 8 mps 760 mmHg 79%

    Tomorrow, 21 June, Friday

    Time Temperature Precipitation Wind Pressure Humidity
    00:00 +27°C° 0.1 mm 8 mps 760 mmHg 78%
    01:00 +27°C° 0.1 mm 8 mps 760 mmHg 78%
    02:00 +27°C° 0.1 mm 8 mps 759 mmHg 78%
    03:00 +26°C° 0.1 mm 8 mps 759 mmHg 78%
    04:00 +27°C° 0 mm 8 mps 759 mmHg 78%
    05:00 +27°C° 0 mm 8 mps 760 mmHg 77%
    06:00 +27°C° 0 mm 7 mps 760 mmHg 77%
    07:00 +28°C° 0 mm 7 mps 761 mmHg 73%
    08:00 +29°C° 0 mm 8 mps 761 mmHg 70%
    09:00 +31°C° 0 mm 8 mps 762 mmHg 66%
    10:00 +31°C° 0 mm 8 mps 761 mmHg 65%
    11:00 +31°C° 0 mm 8 mps 761 mmHg 63%
    12:00 +32°C° 0 mm 8 mps 761 mmHg 61%
    13:00 +31°C° 0 mm 8 mps 760 mmHg 62%
    14:00 +31°C° 0 mm 8 mps 760 mmHg 63%
    15:00 +31°C° 0 mm 8 mps 759 mmHg 64%
    16:00 +29°C° 0 mm 8 mps 759 mmHg 68%
    17:00 +28°C° 0 mm 8 mps 759 mmHg 72%
    18:00 +27°C° 0 mm 8 mps 759 mmHg 76%
    19:00 +27°C° 0 mm 8 mps 759 mmHg 76%
    20:00 +27°C° 0 mm 7 mps 759 mmHg 77%
    21:00 +26°C° 0 mm 7 mps 760 mmHg 77%
    22:00 +26°C° 0 mm 7 mps 760 mmHg 78%
    23:00 +26°C° 0 mm 7 mps 760 mmHg 78%

    Day after tomorrow, 22 June, Saturday

    Time Temperature Precipitation Wind Pressure Humidity
    00:00 +26°C° 0 mm 7 mps 760 mmHg 78%
    01:00 +26°C° 0 mm 7 mps 760 mmHg 79%
    02:00 +26°C° 0 mm 7 mps 759 mmHg 79%
    03:00 +26°C° 0 mm 7 mps 759 mmHg 80%
    04:00 +26°C° 0 mm 7 mps 759 mmHg 80%
    05:00 +26°C° 0 mm 6 mps 759 mmHg 80%
    06:00 +24°C° 0 mm 6 mps 759 mmHg 81%
    07:00 +27°C° 0 mm 6 mps 760 mmHg 75%
    08:00 +28°C° 0 mm 6 mps 760 mmHg 69%
    09:00 +29°C° 0 mm 6 mps 761 mmHg 63%
    10:00 +30°C° 0 mm 7 mps 761 mmHg 60%
    11:00 +32°C° 0 mm 7 mps 760 mmHg 57%
    12:00 +32°C° 0 mm 7 mps 760 mmHg 55%
    13:00 +32°C° 0 mm 7 mps 759 mmHg 56%
    14:00 +32°C° 0 mm 7 mps 759 mmHg 57%
    15:00 +30°C° 0 mm 7 mps 758 mmHg 58%
    16:00 +29°C° 0 mm 7 mps 758 mmHg 63%
    17:00 +28°C° 0 mm 6 mps 758 mmHg 69%
    18:00 +27°C° 0 mm 6 mps 758 mmHg 75%
    19:00 +26°C° 0 mm 6 mps 758 mmHg 76%
    20:00 +26°C° 0 mm 6 mps 759 mmHg 76%
    21:00 +26°C° 0 mm 6 mps 759 mmHg 77%
    22:00 +26°C° 0 mm 6 mps 759 mmHg 78%
    23:00 +24°C° 0 mm 6 mps 759 mmHg 79%

    23 June, Sunday

    Time Temperature Precipitation Wind Pressure Humidity
    00:00 +24°C° 0 mm 6 mps 759 mmHg 80%
    01:00 +24°C° 0 mm 6 mps 758 mmHg 82%
    02:00 +25°C° 0 mm 5 mps 758 mmHg 84%
    03:00 +25°C° 0 mm 5 mps 758 mmHg 86%
    04:00 +25°C° 0 mm 5 mps 758 mmHg 87%
    05:00 +25°C° 0 mm 5 mps 758 mmHg 89%
    06:00 +25°C° 0 mm 5 mps 758 mmHg 91%
    07:00 +26°C° 0 mm 5 mps 759 mmHg 84%
    08:00 +27°C° 0 mm 5 mps 759 mmHg 78%
    09:00 +29°C° 0 mm 6 mps 760 mmHg 71%
    10:00 +30°C° 0 mm 6 mps 759 mmHg 67%
    11:00 +30°C° 0 mm 6 mps 759 mmHg 63%
    12:00 +32°C° 0 mm 6 mps 759 mmHg 59%
    13:00 +32°C° 0 mm 6 mps 758 mmHg 59%
    14:00 +32°C° 0 mm 6 mps 757 mmHg 60%
    15:00 +32°C° 0 mm 6 mps 757 mmHg 60%
    16:00 +30°C° 0 mm 6 mps 757 mmHg 66%
    17:00 +28°C° 0 mm 6 mps 757 mmHg 72%
    18:00 +27°C° 0 mm 6 mps 757 mmHg 78%
    19:00 +27°C° 0 mm 6 mps 758 mmHg 80%
    20:00 +26°C° 0 mm 6 mps 758 mmHg 82%
    21:00 +26°C° 0 mm 6 mps 759 mmHg 83%
    22:00 +26°C° 0 mm 6 mps 759 mmHg 83%
    23:00 +26°C° 0 mm 6 mps 758 mmHg 83%

    24 June, Monday

    Time Temperature Precipitation Wind Pressure Humidity
    00:00 +26°C° 0 mm 6 mps 758 mmHg 83%
    01:00 +26°C° 0 mm 6 mps 758 mmHg 84%
    02:00 +24°C° 0 mm 6 mps 758 mmHg 85%
    03:00 +25°C° 0 mm 5 mps 758 mmHg 86%
    04:00 +25°C° 0 mm 5 mps 758 mmHg 86%
    05:00 +25°C° 0 mm 5 mps 758 mmHg 86%
    06:00 +25°C° 0 mm 5 mps 758 mmHg 86%
    07:00 +26°C° 0 mm 5 mps 759 mmHg 79%
    08:00 +28°C° 0 mm 6 mps 759 mmHg 72%
    09:00 +30°C° 0 mm 6 mps 760 mmHg 64%
    10:00 +30°C° 0 mm 6 mps 760 mmHg 62%
    11:00 +32°C° 0 mm 6 mps 759 mmHg 59%
    12:00 +32°C° 0 mm 7 mps 759 mmHg 56%
    13:00 +32°C° 0 mm 7 mps 758 mmHg 57%
    14:00 +32°C° 0 mm 7 mps 758 mmHg 58%
    15:00 +32°C° 0 mm 7 mps 757 mmHg 59%
    16:00 +29°C° 0 mm 7 mps 757 mmHg 64%
    17:00 +28°C° 0 mm 6 mps 757 mmHg 70%
    18:00 +27°C° 0 mm 6 mps 757 mmHg 76%
    19:00 +27°C° 0 mm 6 mps 758 mmHg 76%
    20:00 +27°C° 0 mm 6 mps 758 mmHg 77%
    21:00 +26°C° 0 mm 6 mps 759 mmHg 78%
    22:00 +26°C° 0 mm 6 mps 759 mmHg 78%
    23:00 +26°C° 0 mm 6 mps 759 mmHg 79%

    25 June, Tuesday

    Time Temperature Precipitation Wind Pressure Humidity
    00:00 +26°C° 0 mm 6 mps 759 mmHg 79%
    01:00 +26°C° 0 mm 6 mps 758 mmHg 79%
    02:00 +26°C° 0 mm 6 mps 758 mmHg 79%
    03:00 +26°C° 0 mm 6 mps 758 mmHg 79%
    04:00 +26°C° 0 mm 6 mps 758 mmHg 79%
    05:00 +26°C° 0 mm 6 mps 758 mmHg 78%
    06:00 +26°C° 0 mm 6 mps 759 mmHg 78%
    07:00 +27°C° 0 mm 6 mps 759 mmHg 74%
    08:00 +28°C° 0 mm 6 mps 760 mmHg 69%
    09:00 +29°C° 0 mm 7 mps 761 mmHg 64%
    10:00 +30°C° 0 mm 7 mps 760 mmHg 62%
    11:00 +32°C° 0 mm 7 mps 760 mmHg 59%
    12:00 +32°C° 0 mm 7 mps 760 mmHg 56%
    13:00 +32°C° 0 mm 7 mps 759 mmHg 58%
    14:00 +32°C° 0 mm 7 mps 758 mmHg 59%
    15:00 +32°C° 0 mm 8 mps 758 mmHg 61%
    16:00 +30°C° 0 mm 7 mps 758 mmHg 66%
    17:00 +28°C° 0 mm 7 mps 758 mmHg 71%
    18:00 +27°C° 0 mm 7 mps 758 mmHg 76%
    19:00 +27°C° 0 mm 7 mps 759 mmHg 76%
    20:00 +27°C° 0 mm 7 mps 759 mmHg 77%
    21:00 +27°C° 0 mm 7 mps 760 mmHg 77%
    22:00 +27°C° 0 mm 7 mps 759 mmHg 77%
    23:00 +26°C° 0 mm 7 mps 759 mmHg 78%
    Show more